[[{"header":{"parameterUnit":"m.s-1","parameterCategory":1,"la1":30.2992,"la2":30.254,"lo1":-89.0895,"lo2":-89.0443,"dy":0.0025,"dx":0.0025,"nx":19,"ny":19,"refTime":"2026-03-23T09:00:00:Z","depth":0,"parameterNumber":2,"parameterNumberName":"U-component_of_WINDS"},"data":[0,0,0,-5.7924,-5.7929,-5.8125,-5.8125,-5.8383,-5.8385,0,0,0,0,0,0,0,0,0,0,0,-5.7872,-5.7874,-5.7924,-5.7929,-5.8124,-5.8125,-5.8382,-5.8385,0,0,0,0,0,0,0,0,0,0,0,-5.7872,-5.7874,-5.7876,-5.793,-5.8124,-5.8125,-5.8382,-5.8231,0,0,0,0,0,0,0,0,0,0,-5.804,-5.7998,-5.7873,-5.7877,-5.7931,-5.8124,-5.8125,-5.8224,-5.8241,-5.8298,0,-5.8352,0,-5.8373,-5.8403,-5.8404,0,0,0,-5.7924,-5.7984,-5.8032,-5.7877,-5.7933,-5.8124,-5.8035,-5.8233,-5.8252,-5.832,-5.8356,-5.8365,-5.8378,-5.8405,-5.8406,-5.876,-5.8761,0,0,-5.7913,-5.791,-5.8019,-5.8045,-5.8017,-5.8029,-5.8041,-5.8244,-5.8282,-5.8357,-5.8371,-5.8382,-5.8407,-5.8409,-5.8758,-5.876,0,0,0,-5.7885,-5.7903,-5.7945,-5.8034,-5.8069,-5.8034,-5.8049,-5.8273,-5.8287,-5.8374,-5.8385,-5.8408,-5.8411,-5.8756,-5.8759,-5.8848,0,0,0,-5.7879,-5.7887,-5.7941,-5.7941,-5.8066,-5.8174,-5.8073,-5.8273,-5.8296,-5.8384,-5.8408,-5.8414,-5.8754,-5.8757,-5.8841,-5.8889,0,0,0,-5.7857,-5.7884,-5.7915,-5.7941,-5.8025,-5.8171,-5.8196,-5.8278,-5.8303,-5.8404,-5.8415,-5.8752,-5.8757,-5.8835,-5.8879,-5.8979,0,0,0,-5.7833,-5.7992,-5.7917,-5.8098,-5.8024,-5.8227,-5.8195,-5.8346,-5.8444,-5.841,-5.8754,-5.8758,-5.8833,-5.8873,-5.8972,-5.9059,-5.9097,0,0,-5.8031,-5.8015,-5.8123,-5.8061,-5.8277,-5.8197,-5.8426,-5.8516,-5.8528,-5.8681,-5.869,-5.8843,-5.8878,-5.8977,-5.9315,-5.9345,0,0,0,-5.8184,-5.826,-5.8318,-5.8412,-5.8488,-5.8555,-5.8613,-5.8647,-5.8777,-5.8607,-5.8909,-5.893,-5.8988,-5.9029,-5.9055,-5.9103,-5.8779,-5.8778,-5.8778,-5.8456,-5.8465,-5.8642,-5.8674,-5.8766,-5.8825,-5.89,-5.8955,-5.8936,-5.9008,-5.9051,-5.9255,-5.9304,-5.9323,-5.9373,-5.9102,-5.9102,-5.9103,-5.9103,-5.8743,-5.885,-5.8825,-5.8986,-5.8994,-5.913,-5.9194,-5.9176,-5.9302,-5.9223,-5.9275,-5.9182,-5.9355,-5.9399,-5.911,-5.9109,-5.9108,-5.9107,-5.9107,-5.8917,-5.8969,-5.9011,-5.9149,-5.9254,-5.9283,-5.9406,-5.941,-5.9414,-5.9466,-5.951,-5.9509,-5.9504,-5.9488,-5.9489,-5.949,-5.949,-5.9491,-5.9491,-5.9078,-5.9123,-5.9226,-5.9323,-5.9384,-5.9465,-5.9529,-5.9589,-5.9656,-5.9649,-5.9649,-5.962,-5.9373,-5.9307,-5.9502,-5.95,-5.9499,-5.9498,-5.9497,-5.9356,-5.9295,-5.9454,-5.9516,-5.963,-5.9733,-5.974,-5.9862,-5.9913,-5.9972,-5.9936,-5.9754,-5.9736,-5.9716,-5.9661,-5.9936,-5.9936,-5.9936,-5.9936,-5.9498,-5.9493,-5.9657,-5.9755,-5.9853,-5.9876,-6.0054,-6.0107,-6.0151,-6.0182,-6.0145,-6.0075,-6.0055,-6.0049,-6.0022,-5.997,-6.0318,-6.0318,-6.0318,-5.9667,-5.9672,-5.9822,-5.9867,-5.9957,-6.0034,-6.0201,-6.0314,-6.0352,-6.0334,-6.0206,-6.019,-6.0078,-6.0041,-6.0013,-5.997,-5.9877,0,0]},{"header":{"parameterUnit":"m.s-1","parameterCategory":1,"la1":30.2992,"la2":30.254,"lo1":-89.0895,"lo2":-89.0443,"dy":0.0025,"dx":0.0025,"nx":19,"ny":19,"refTime":"2026-03-23T09:00:00:Z","depth":0,"parameterNumber":3,"parameterNumberName":"V-component_of_WINDS"},"data":[0,0,0,2.0263,2.0263,2.0295,2.0295,2.0333,2.0333,0,0,0,0,0,0,0,0,0,0,0,2.0253,2.0253,2.0263,2.0263,2.0295,2.0295,2.0333,2.0333,0,0,0,0,0,0,0,0,0,0,0,2.0253,2.0253,2.0254,2.0263,2.0295,2.0295,2.0332,2.0309,0,0,0,0,0,0,0,0,0,0,2.0279,2.027,2.0253,2.0254,2.0264,2.0295,2.0295,2.0308,2.0311,2.0318,0,2.0326,0,2.033,2.0336,2.0336,0,0,0,2.0262,2.0268,2.0277,2.0254,2.0264,2.0295,2.028,2.0309,2.0312,2.0321,2.0326,2.0328,2.0331,2.0336,2.0336,2.0387,2.0387,0,0,2.0261,2.0258,2.0275,2.0279,2.0276,2.0279,2.0281,2.0311,2.0316,2.0326,2.0329,2.0332,2.0336,2.0336,2.0387,2.0387,0,0,0,2.0256,2.0257,2.0265,2.0278,2.0284,2.028,2.0283,2.0314,2.0317,2.0329,2.0332,2.0336,2.0337,2.0387,2.0387,2.0399,0,0,0,2.0255,2.0254,2.0264,2.0263,2.0283,2.03,2.0285,2.0315,2.0319,2.0332,2.0336,2.0337,2.0386,2.0387,2.0398,2.0404,0,0,0,2.0251,2.0254,2.0259,2.0263,2.0277,2.0299,2.0304,2.0316,2.0321,2.0336,2.0337,2.0386,2.0387,2.0397,2.0403,2.0418,0,0,0,2.0245,2.0266,2.0259,2.0284,2.0276,2.0308,2.0304,2.0327,2.0341,2.0336,2.0386,2.0387,2.0397,2.0402,2.0417,2.043,2.0436,0,0,2.027,2.0269,2.0284,2.0279,2.0311,2.0303,2.0337,2.0351,2.0353,2.0375,2.0377,2.0399,2.0403,2.0418,2.0468,2.0472,0,0,0,2.0291,2.0302,2.0311,2.0327,2.0341,2.0354,2.0364,2.037,2.039,2.0365,2.0409,2.0411,2.042,2.0426,2.043,2.0438,2.039,2.039,2.039,2.0319,2.0326,2.0352,2.0363,2.0379,2.0392,2.0404,2.0414,2.0412,2.0423,2.0429,2.0459,2.0466,2.0469,2.0477,2.0437,2.0437,2.0437,2.0437,2.0356,2.0373,2.0376,2.0403,2.0409,2.0431,2.0445,2.0444,2.0465,2.0454,2.0462,2.0448,2.0473,2.0481,2.0438,2.0438,2.0437,2.0437,2.0437,2.0375,2.0384,2.0395,2.0421,2.0441,2.0451,2.0472,2.0476,2.048,2.0488,2.0496,2.0495,2.0495,2.0492,2.0492,2.0492,2.0492,2.0492,2.0492,2.0389,2.0401,2.042,2.0441,2.0454,2.0471,2.0488,2.05,2.0514,2.0515,2.0515,2.0513,2.0476,2.0466,2.0494,2.0494,2.0493,2.0493,2.0493,2.0422,2.0417,2.0446,2.046,2.0487,2.0507,2.0514,2.0539,2.055,2.056,2.0558,2.0531,2.0528,2.0525,2.0517,2.0557,2.0557,2.0557,2.0557,2.0437,2.0439,2.0472,2.0494,2.0515,2.0527,2.0559,2.0574,2.0587,2.0594,2.0589,2.0579,2.0577,2.0576,2.0572,2.0564,2.0615,2.0615,2.0616,2.0458,2.0463,2.049,2.0507,2.053,2.0549,2.058,2.0604,2.0618,2.0618,2.06,2.0597,2.0581,2.0576,2.0572,2.0566,2.0552,0,0]}]]